| time (UTC) | temp F | wind direction | speed knots | gust knots | rain 1hr in | rain 24hr in | rain mn in | humidity % | barometer mb |
| 20260506103104 | 54 | 0 | 0.0 | 0.0 | 0.00 | 0.01 | 0.00 | 90 | 1017.6 |
| 20260506101604 | 54 | 0 | 0.0 | 0.0 | 0.00 | 0.01 | 0.00 | 90 | 1017.5 |
| 20260506100056 | 55 | 0 | 0.0 | 0.0 | 0.00 | 0.01 | 0.00 | 90 | 1017.3 |
| 20260506094603 | 55 | 0 | 0.0 | 0.0 | 0.00 | 0.01 | 0.00 | 89 | 1017.2 |
| 20260506093110 | 55 | 0 | 0.0 | 0.0 | 0.00 | 0.01 | 0.00 | 90 | 1017.1 |
| 20260506091602 | 55 | 0 | 0.0 | 0.0 | 0.00 | 0.01 | 0.00 | 88 | 1017.0 |
| 20260506084605 | 55 | 0 | 0.0 | 0.0 | 0.00 | 0.01 | 0.00 | 88 | 1016.9 |
| 20260506083058 | 55 | 0 | 0.0 | 0.0 | 0.00 | 0.01 | 0.00 | 88 | 1017.0 |
| 20260506081603 | 55 | 0 | 0.0 | 0.0 | 0.00 | 0.01 | 0.00 | 88 | 1016.9 |
| 20260506080106 | 55 | 0 | 0.0 | 4.3 | 0.00 | 0.01 | 0.00 | 87 | 1016.8 |
| 20260506073058 | 55 | 0 | 3.5 | 5.2 | 0.00 | 0.01 | 0.00 | 88 | 1016.7 |
| 20260506071606 | 55 | 166 | 1.7 | 7.8 | 0.00 | 0.01 | 0.00 | 88 | 1016.7 |
| 20260506061556 | 54 | 166 | 3.5 | 6.1 | 0.00 | 0.01 | 0.01 | 88 | 1016.4 |
| 20260506050106 | 52 | 162 | 1.7 | 6.1 | 0.00 | 0.01 | 0.01 | 91 | 1016.1 |
| 20260506044555 | 52 | 120 | 0.0 | 2.6 | 0.00 | 0.01 | 0.01 | 91 | 1016.0 |
| 20260506043100 | 52 | 120 | 0.9 | 3.5 | 0.00 | 0.01 | 0.01 | 90 | 1015.9 |
| 20260506041602 | 53 | 120 | 0.9 | 3.5 | 0.00 | 0.01 | 0.01 | 89 | 1015.7 |
| 20260506034616 | 55 | 0 | 0.0 | 2.6 | 0.00 | 0.01 | 0.01 | 87 | 1015.4 |
| 20260506033058 | 56 | 0 | 0.0 | 0.0 | 0.00 | 0.01 | 0.01 | 87 | 1015.1 |
| 20260506031608 | 57 | 0 | 0.0 | 0.0 | 0.00 | 0.01 | 0.01 | 85 | 1014.9 |
| 20260506030103 | 58 | 0 | 0.0 | 0.0 | 0.00 | 0.01 | 0.01 | 82 | 1014.9 |
| 20260506024619 | 59 | 0 | 0.0 | 0.0 | 0.00 | 0.01 | 0.01 | 81 | 1014.6 |
| 20260506023106 | 60 | 0 | 0.0 | 0.0 | 0.00 | 0.01 | 0.01 | 77 | 1014.8 |
| 20260506021559 | 61 | 0 | 0.0 | 0.0 | 0.00 | 0.01 | 0.01 | 75 | 1014.8 |
| 20260506020100 | 61 | 0 | 0.0 | 0.0 | 0.00 | 0.01 | 0.01 | 76 | 1014.7 |
| 20260506014559 | 62 | 0 | 0.0 | 0.0 | 0.00 | 0.01 | 0.01 | 73 | 1014.6 |
| 20260506013110 | 62 | 0 | 0.0 | 0.0 | 0.00 | 0.01 | 0.01 | 72 | 1014.7 |
| 20260506011608 | 61 | 0 | 0.0 | 0.9 | 0.00 | 0.01 | 0.01 | 74 | 1014.6 |
| 20260506010058 | 62 | 0 | 0.0 | 0.9 | 0.00 | 0.01 | 0.01 | 73 | 1014.7 |
| 20260506004557 | 61 | 0 | 0.0 | 2.6 | 0.00 | 0.01 | 0.01 | 76 | 1014.6 |
| 20260506003058 | 61 | 352 | 0.9 | 3.5 | 0.00 | 0.01 | 0.01 | 75 | 1014.7 |
| 20260506001558 | 61 | 0 | 0.0 | 3.5 | 0.00 | 0.01 | 0.01 | 77 | 1014.8 |
| 20260505234600 | 60 | 352 | 1.7 | 4.3 | 0.00 | 0.01 | 0.01 | 77 | 1015.1 |
| 20260505233102 | 61 | 0 | 0.9 | 4.3 | 0.00 | 0.01 | 0.01 | 77 | 1015.2 |
| 20260505231559 | 61 | 0 | 0.0 | 3.5 | 0.00 | 0.01 | 0.01 | 75 | 1015.2 |
| 20260505230108 | 61 | 352 | 0.9 | 5.2 | 0.00 | 0.01 | 0.01 | 76 | 1015.3 |
| 20260505224600 | 60 | 0 | 0.0 | 4.3 | 0.00 | 0.01 | 0.01 | 77 | 1015.4 |
| 20260505223111 | 60 | 0 | 1.7 | 5.2 | 0.00 | 0.01 | 0.01 | 77 | 1015.5 |
| 20260505221559 | 60 | 0 | 0.0 | 0.9 | 0.00 | 0.01 | 0.01 | 77 | 1015.6 |
| 20260505220108 | 60 | 0 | 0.0 | 2.6 | 0.00 | 0.01 | 0.01 | 76 | 1015.6 |
| 20260505214559 | 60 | 0 | 0.0 | 2.6 | 0.00 | 0.01 | 0.01 | 78 | 1015.7 |
| 20260505213101 | 60 | 0 | 0.9 | 2.6 | 0.00 | 0.01 | 0.01 | 77 | 1015.7 |
| 20260505211559 | 60 | 352 | 0.0 | 3.5 | 0.00 | 0.01 | 0.01 | 77 | 1015.7 |
| 20260505210058 | 59 | 352 | 2.6 | 7.0 | 0.00 | 0.01 | 0.01 | 77 | 1015.7 |
| 20260505204608 | 59 | 352 | 0.0 | 7.0 | 0.00 | 0.01 | 0.01 | 80 | 1015.8 |
| 20260505203108 | 59 | 352 | 1.7 | 7.8 | 0.00 | 0.01 | 0.01 | 79 | 1015.9 |
| 20260505201608 | 59 | 0 | 0.0 | 2.6 | 0.00 | 0.01 | 0.01 | 78 | 1016.0 |
| 20260505200101 | 58 | 0 | 0.0 | 0.0 | 0.00 | 0.01 | 0.01 | 79 | 1016.0 |
| 20260505194612 | 58 | 0 | 0.0 | 2.6 | 0.00 | 0.01 | 0.01 | 81 | 1016.0 |
| 20260505193056 | 58 | 346 | 0.9 | 3.5 | 0.00 | 0.01 | 0.01 | 83 | 1016.0 |
| 20260505191601 | 57 | 0 | 0.0 | 1.7 | 0.00 | 0.01 | 0.01 | 82 | 1016.0 |
| 20260505190056 | 57 | 0 | 1.7 | 4.3 | 0.00 | 0.01 | 0.01 | 83 | 1016.1 |
| 20260505184555 | 57 | 0 | 0.0 | 5.2 | 0.00 | 0.01 | 0.01 | 83 | 1016.0 |
| 20260505183107 | 57 | 0 | 0.0 | 3.5 | 0.00 | 0.01 | 0.01 | 82 | 1016.0 |
| 20260505181558 | 56 | 0 | 0.0 | 0.9 | 0.00 | 0.01 | 0.01 | 86 | 1016.1 |
| 20260505180104 | 55 | 244 | 0.0 | 0.0 | 0.00 | 0.01 | 0.01 | 86 | 1016.0 |
| 20260505174600 | 55 | 0 | 0.0 | 2.6 | 0.00 | 0.01 | 0.01 | 88 | 1015.9 |
| 20260505173056 | 54 | 0 | 0.0 | 3.5 | 0.00 | 0.01 | 0.01 | 90 | 1015.8 |
| 20260505171558 | 53 | 0 | 0.0 | 0.0 | 0.00 | 0.01 | 0.01 | 91 | 1015.9 |
| 20260505170100 | 53 | 0 | 0.0 | 3.5 | 0.00 | 0.01 | 0.01 | 92 | 1015.7 |
| 20260505164606 | 53 | 0 | 0.0 | 0.0 | 0.01 | 0.01 | 0.01 | 92 | 1015.7 |
| 20260505163108 | 53 | 0 | 0.0 | 0.0 | 0.01 | 0.01 | 0.01 | 93 | 1015.7 |
| 20260505161610 | 52 | 0 | 0.0 | 2.6 | 0.01 | 0.01 | 0.01 | 93 | 1015.6 |
| 20260505160110 | 52 | 0 | 0.0 | 3.5 | 0.01 | 0.01 | 0.01 | 93 | 1015.7 |
| 20260505153117 | 52 | 0 | 0.0 | 0.0 | 0.00 | 0.00 | 0.00 | 93 | 1015.6 |
| 20260505151604 | 52 | 0 | 0.0 | 0.0 | 0.00 | 0.00 | 0.00 | 93 | 1015.6 |
| 20260505140109 | 52 | 0 | 0.0 | 0.0 | 0.00 | 0.00 | 0.00 | 91 | 1014.8 |
| 20260505130104 | 52 | 0 | 0.0 | 0.0 | 0.00 | 0.00 | 0.00 | 89 | 1014.5 |
| 20260505124604 | 53 | 0 | 0.0 | 4.3 | 0.00 | 0.00 | 0.00 | 88 | 1014.4 |
| 20260505123106 | 53 | 232 | 0.9 | 5.2 | 0.00 | 0.00 | 0.00 | 87 | 1014.5 |
| 20260505121600 | 53 | 0 | 0.0 | 4.3 | 0.00 | 0.00 | 0.00 | 87 | 1014.3 |
| 20260505120059 | 53 | 196 | 0.0 | 5.2 | 0.00 | 0.00 | 0.00 | 86 | 1014.2 |
| 20260505114558 | 53 | 0 | 0.0 | 6.1 | 0.00 | 0.00 | 0.00 | 86 | 1014.1 |
| 20260505113100 | 53 | 180 | 2.6 | 7.8 | 0.00 | 0.00 | 0.00 | 85 | 1014.0 |
| 20260505111559 | 53 | 194 | 1.7 | 4.3 | 0.00 | 0.00 | 0.00 | 85 | 1014.1 |
| 20260505110105 | 53 | 0 | 3.5 | 8.7 | 0.00 | 0.00 | 0.00 | 85 | 1014.0 |